    Observer details:
    033 Karl Schwarzschild Observatory, Tautenburg.  Observers U. Laux, S. Melnikov,
        B. Stecklum.  Measurer B. Stecklum.  1.34-m f/3 Schmidt + CCD.
    106 Crni Vrh.  Observer J. Vales.  0.6-m f/3.3 Deltagraph + CCD.
    160 Castelmartini.  Observers M. Jaeger, E. Prosperi, S. Prosperi.  Measurer E. 
       Prosperi.  0.35-m f/10 Schmidt-Cassegrain + CCD.
    204 Schiaparelli Observatory.  Observer L. Buzzi.  0.84-m f/3.5 reflector + CCD.
    246 Klet Observatory-KLENOT.  Observers M. Tichy, J. Ticha.  Measurer M. Tichy. 
        1.06-m f/2.7 reflector + 2048x2048 CCD.
    291 LPL/Spacewatch II.  Observer T. H. Bressi.  1.8-m f/2.7 reflector + CCD.
    474 Mount John Observatory, Lake Tekapo.  Observers A. C. Gilmore, P. M. 
       Kilmartin.  Measurer P. M. Kilmartin.  1.0-m f/7.7 reflector + CCD.
    C42 Xingming Observatory, Mt. Nanshan.  Observer X. Gao.  Measurer Q.-Z. Ye.  
        0.6-m f/8 Ritchey-Chretien + CCD.
    G96 Mt. Lemmon Survey.  Observer G. J. Leonard.  Measurers E. J. Christensen, 
       G. A. Farneth, D. C. Fuls, A. R. Gibbs, A. D. Grauer, H. Groeller, R. A. 
       Kowalski, S. M. Larson, G. J. Leonard, T. A. Pruyne, D. Rankin, R. L. Seaman,
        F. C. Shelly, K. W. Wierzchos.  1.5-m reflector + 10K CCD.
    I52 Steward Observatory, Mt. Lemmon Station.  Observer K. W. Wierzchos.  
        Measurers E. J. Christensen, G. A. Farneth, D. C. Fuls, A. R. Gibbs, A. D. 
       Grauer, H. Groeller, R. A. Kowalski, S. M. Larson, G. J. Leonard, T. A. 
       Pruyne, D. Rankin, R. L. Seaman, F. C. Shelly, K. W. Wierzchos.  1.0-m 
       reflector + CCD.
    J69 North Observatory, Clanfield.  Observer D. Briggs.  0.41-m f/4.5 Newtonian 
       reflector + CCD.
    J95 Great Shefford.  Observer P. Birtwhistle.  0.41-m f/6.3 Schmidt-Cassegrain 
       + CCD.
    K63 G. Pascoli Observatory, Castelvecchio Pascoli.  Observer R. Bacci.  0.4-m 
       f/3.2 Newtonian reflector + CCD.
    L01 Visnjan Observatory, Tican.  Observer K. Korlevic.  1.0-m f/2.9 reflector + 
       CCD.
    L04 ROASTERR-1 Observatory, Cluj-Napoca.  Observer L. Hudin.  0.3-m f/5 
       reflector + CCD.
    V06 Catalina Sky Survey-Kuiper.  Observer H. Groeller.  Measurers E. J. 
       Christensen, G. A. Farneth, D. C. Fuls, A. R. Gibbs, A. D. Grauer, H. 
       Groeller, R. A. Kowalski, S. M. Larson, G. J. Leonard, T. A. Pruyne, D. 
       Rankin, R. L. Seaman, F. C. Shelly, K. W. Wierzchos.  1.55-m reflector + CCD.
    X31 Galileo Galilei Observatory, Oro Verde.  Observers C. Fornari, E. 
       Reisenauer, J. Alonso, A. Lescano.  Measurer C. Fornari.  0.40-m f/8 
       Ritchey-Chretien + CCD.
    Z80 Northolt Branch Observatory.  Observer G. Wells.  Measurer D. Bamberger.  
        0.25-m f/8.0 Ritchey-Chretien + CCD.
    
    Orbital elements:
    2020 FD                                                  Earth MOID = 0.0001 AU
    Epoch 2020 May 31.0 TT = JDT 2459000.5                  Veres
    M  12.03080              (2000.0)            P               Q
    n   0.73858577     Peri.  278.06951     +0.10693075     +0.99426623
    a   1.2120916      Node   358.06850     -0.90395664     +0.09692871
    e   0.4863526      Incl.    1.17482     -0.41403890     +0.04516069
    P   1.33           H   27.7           G   0.15           U   6
    Residuals in seconds of arc
    200316 G96  0.1-  0.0     200316 033  0.2-  0.4-    200317 J95  0.1-  0.2-
    200316 G96  0.1-  0.2-    200316 033  0.2-  0.5-    200317 033  0.4-  0.4-
    200316 G96  0.5-  0.1+    200316 Z80  0.9-  0.9+    200317 J95  0.1+  0.3+
    200316 G96  1.0-  0.8+    200316 Z80  0.0   0.3+    200317 033  0.3-  0.5-
    200316 I52  0.5-  0.5+    200316 106  0.5+  0.1-    200317 033  0.7-  0.2-
    200316 I52  0.3-  0.3-    200316 Z80  0.2-  0.4-    200317 L01  0.1-  0.1-
    200316 I52  0.1+  0.4-    200316 106  0.7+  0.0     200317 L01  0.1-  0.1-
    200316 I52  0.0   0.2-    200316 106  1.0+  0.6+    200317 L01  0.1-  0.0
    200316 I52  0.2-  0.1+    200316 106  0.8-  0.8-    200317 204  0.0   0.3-
    200316 I52  0.2-  0.0     200316 106 (1.0+  2.0-)   200317 K63  0.3+  0.3-
    200316 I52  0.3+  0.3-    200316 106  0.4-  0.6+    200317 X31  0.2-  0.1-
    200316 I52  0.3+  0.2-    200316 246  0.6-  0.6+    200317 K63  0.2+  0.0
    200316 I52  0.0   0.1-    200316 246  0.2-  0.9+    200317 204  0.1-  0.2-
    200316 291  0.3+  0.3+    200316 246  0.5+  0.1+    200317 X31  0.1-  0.1+
    200316 291  0.2+  0.4+    200316 246  0.1+  0.1+    200317 K63  1.1+  0.2+
    200316 291  0.3+  0.1+    200316 246  0.4-  0.0     200317 J69  0.0   0.0
    200316 C42  0.7-  0.2+    200316 246  0.3-  0.5+    200317 X31  0.3+  0.4-
    200316 C42  0.8+  0.3-    200316 246  0.1+  0.0     200317 204  0.3-  0.1-
    200316 C42  0.1-  0.3+    200316 246  0.7-  0.1-    200317 J69  0.5-  0.3-
    200316 C42  0.6+  0.7-    200316 246  0.1+  0.2+    200317 J69  0.6+  0.2-
    200316 C42  0.5+  0.2-    200316 246  0.6+  0.4-    200317 V06  0.2+  0.0
    200316 C42  0.0   0.2+    200317 160  0.2+  0.1-    200317 V06  0.2-  0.0
    200316 C42  1.0+  0.7-    200317 160  0.0   0.2-    200317 V06  0.3-  0.4+
    200316 C42  0.4+  0.9-    200317 160  0.0   0.6-    200317 V06  0.0   0.1-
    200316 C42  0.0   0.2+    200317 160  1.2-  0.1-    200317 474  0.4-  0.1+
    200316 C42  0.1+  0.6+    200317 160  0.5-  0.3-    200317 474  0.3+  0.0
    200316 L04  0.5+  0.5+    200317 160  0.2+  0.7-    200317 474  0.8+  0.1+
    200316 L04  0.9+  0.1+    200317 160  0.2-  0.5-    200317 474  0.3-  0.2-
    200316 033  0.2-  0.4-    200317 J95  0.2+  0.4+    200317 474  0.1-  0.0
    200316 L04  0.4+  0.2+    200317 J95  0.2-  0.2+
    
    Ephemeris:
    2020 FD                  a,e,i = 1.21, 0.49, 1                   q = 0.6226
    Date    TT    R. A. (2000) Decl.     Delta      r    Elong.  Phase     V
    2020 02 16    12 02 12.3 +01 53 47   0.2988  1.2482   146.7    25.8    26.7
    ...
    2020 03 02    12 09 09.4 +01 18 54   0.1479  1.1311   159.9    17.5    24.7
    ...
    2020 03 10    12 12 54.4 +00 59 58   0.07362 1.0649   166.9    12.2    22.9
    ...
    2020 03 16    12 27 13.9 -00 20 51   0.01953 1.0139   168.9    10.8    19.9
    2020 03 17    12 43 13.8 -01 51 57   0.01063 1.0053   165.7    14.2    18.6
    2020 03 18    15 13 38.8 -14 25 20   0.0022960.9967   127.6    52.3    16.4
    ...
    2020 03 24    00 04 05.4 -01 50 30   0.05241 0.9447     3.9   175.8
    ...
    2020 04 01    00 08 31.0 -01 21 15   0.1263  0.8753    10.3   168.3
    ...
    2020 04 16    00 15 16.2 -00 22 37   0.2827  0.7513    22.9   148.7    32.5
    
    A. U. Tomatic                (C) Copyright 2020 MPC           M.P.E.C. 2020-F13
    


    Read MPEC 2020-F12 Read MPEC 2020-F14


    MPEC number:

    Enter an MPEC number in one of the following forms:

    • 1997-B01 (the full form)
    • J97B01 (the packed version of the full form)
    • B01 (the abbreviated form)